Wind_Speed
9 10 9 9 9 9 10 10 11 10 11 11 10 10 11 11 11 11 11 11 11 11 11 10 10 10 11 10 10 10 11 10 10 10 9 9 9 9 8 9 8 8 7 7
11 11 10 10 10 10 10 11 11 12 11 11 11 11 11 12 11 11 11 11 12 11 11 11 10 11 10 10 9 9 9 9 9 8 9 9 9 9 9 9 8 8 7 7
12 11 11 12 12 12 12 12 12 12 12 12 12 12 11 12 12 12 12 11 11 12 11 11 11 11 10 10 10 9 8 8 8 8 9 9 9 9 9 9 9 8 8 7
13 13 13 13 13 12 12 12 12 12 11 11 12 13 12 12 12 12 12 12 12 12 12 11 11 11 11 10 10 9 9 8 8 8 9 9 9 9 9 9 9 8 8 7
14 14 14 14 14 13 12 12 12 12 11 12 12 14 13 13 13 12 12 12 12 13 12 12 12 12 12 11 10 10 10 9 9 9 9 9 9 9 9 8 8 8 8 7
15 15 15 14 14 14 14 13 13 12 12 12 12 14 13 13 13 14 13 13 13 13 13 13 12 12 12 11 11 10 10 10 10 10 10 10 10 9 9 9 9 9 8 8
16 15 15 15 15 15 15 13 12 11 11 12 12 15 14 14 14 14 13 14 14 14 14 13 12 12 12 12 11 11 11 11 11 11 10 10 10 10 10 9 10 9 9 9
16 16 15 15 15 15 16 15 13 12 12 13 13 14 13 14 14 14 14 14 14 13 13 13 13 13 12 12 11 11 11 11 11 11 10 10 10 10 10 10 10 10 9 10
16 17 15 16 16 15 15 16 16 15 14 14 15 14 13 13 14 14 14 14 13 13 13 14 13 13 13 12 12 12 11 11 11 11 11 11 10 10 10 10 9 9 9 9
17 18 17 17 17 17 17 16 16 16 15 16 15 14 13 13 14 14 14 14 14 13 13 13 13 12 12 12 12 12 11 11 11 11 11 10 10 10 10 9 9 9 9 10
18 18 18 18 18 18 18 17 18 18 17 17 16 15 14 15 15 14 14 14 13 13 13 13 12 12 12 12 11 12 11 11 11 11 11 11 10 10 10 10 10 10 10 10
19 19 20 19 19 20 20 19 19 20 18 18 17 16 15 16 16 15 14 14 14 13 13 13 12 12 12 12 12 12 12 11 11 11 11 11 11 10 10 10 10 10 10 10
19 19 20 20 20 21 21 20 21 21 20 20 18 16 16 17 16 15 14 14 14 13 13 13 13 13 13 12 12 12 12 11 11 12 11 11 11 11 10 11 10 10 10 10
20 19 20 21 21 21 22 22 22 22 22 21 20 18 18 17 16 15 15 14 14 14 14 13 13 13 13 13 12 12 12 12 12 12 11 11 11 11 11 11 11 11 11 11
21 21 21 21 21 21 22 23 23 24 23 23 21 20 19 19 18 17 16 15 15 15 14 14 14 14 14 13 12 12 12 12 11 11 11 11 11 11 11 11 12 12 11 11
22 21 21 21 20 21 22 23 24 24 24 24 23 21 20 19 19 19 19 17 16 17 16 15 15 15 14 13 12 12 11 12 11 11 11 11 11 11 11 11 12 11 11 11
22 22 22 21 21 23 23 22 22 23 23 23 23 23 22 21 21 21 20 18 17 18 18 17 16 15 14 14 13 13 12 12 12 12 12 12 12 11 12 12 12 12 12 12
22 22 22 21 22 23 21 21 22 21 22 23 23 23 23 23 22 22 21 20 19 18 18 18 17 17 16 15 15 14 13 13 13 12 12 13 13 13 13 13 13 13 12 13
22 22 22 22 23 22 21 22 21 22 21 22 23 23 23 24 24 23 23 21 20 19 19 18 18 18 17 16 16 15 15 14 14 13 13 14 14 14 14 14 14 14 14 14
23 23 23 22 22 22 20 20 20 22 22 22 22 22 23 24 24 24 23 22 21 20 20 19 19 18 17 17 17 17 16 15 15 15 15 15 15 15 15 15 15 14 15 15
23 23 23 22 22 22 20 21 21 22 22 22 22 22 23 24 24 25 25 23 22 21 21 21 20 19 18 17 17 17 17 16 16 16 16 16 16 16 16 16 16 16 17 17
24 24 23 23 23 22 21 22 23 23 23 22 22 22 23 24 25 25 24 24 23 22 22 22 21 20 19 19 19 19 18 18 17 17 17 17 18 18 18 17 18 18 18 18
25 25 23 23 23 22 22 23 24 24 24 24 24 23 23 23 24 25 24 24 24 23 23 23 22 21 21 20 20 20 19 19 19 18 18 19 19 19 19 19 19 19 19 19
26 25 25 24 23 22 23 24 25 25 25 25 25 25 25 24 24 25 25 25 25 24 24 23 23 22 22 22 21 20 20 20 20 19 19 19 20 20 20 20 20 20 20 20
26 26 25 25 24 24 24 25 25 26 26 25 25 25 25 25 26 26 26 26 26 26 25 24 24 24 23 23 22 22 21 21 21 20 20 20 20 21 20 20 20 21 21 22
29 28 27 27 25 25 25 25 25 25 25 25 25 24 25 26 26 26 26 26 26 26 26 25 25 25 25 24 24 23 23 23 22 22 22 22 22 22 21 21 22 22 23 24
Wind_Direction
253 250 251 253 253 254 256 260 264 263 264 262 263 267 266 267 265 265 264 263 262 262 263 263 261 260 260 265 265 258 257 256 256 258 259 258 255 253 254 256 262 265 270 276
255 254 253 252 253 252 256 259 261 263 263 265 265 267 268 269 269 267 266 265 264 264 263 260 259 259 257 260 264 258 257 254 253 255 255 256 258 254 256 259 262 265 272 278
256 258 254 249 250 251 255 260 262 262 260 264 266 266 268 270 270 269 268 268 270 266 263 261 259 258 256 258 261 255 251 252 254 254 254 256 256 258 259 261 263 268 272 277
256 256 253 249 248 250 254 256 258 261 261 266 267 269 267 268 269 269 269 267 269 264 264 261 258 258 260 259 257 256 254 253 256 260 259 258 257 257 260 262 265 270 272 275
255 254 252 251 250 251 252 252 256 260 263 264 267 270 269 268 270 269 269 269 268 264 261 261 259 258 259 258 256 258 257 257 259 262 261 260 258 257 257 260 266 267 272 277
255 254 253 251 248 247 247 249 251 254 259 264 266 270 272 270 271 269 269 270 266 263 261 260 260 260 259 256 256 259 261 259 260 261 259 260 257 259 261 262 271 270 270 275
257 256 255 252 247 245 244 246 248 252 259 268 267 268 272 271 270 272 272 270 267 263 262 260 260 262 259 255 258 259 260 257 259 261 259 257 259 261 261 265 270 271 271 273
254 255 254 252 250 247 245 243 241 246 253 265 269 266 271 270 271 272 272 268 266 264 259 258 259 259 257 255 256 260 259 258 259 261 258 256 260 262 264 268 268 267 268 270
251 252 250 250 249 247 245 242 240 242 250 259 264 267 270 272 273 272 270 267 266 264 261 259 259 258 256 254 254 257 258 258 258 261 259 255 258 262 263 264 262 262 263 267
246 250 251 251 248 247 246 243 236 238 245 255 263 264 267 273 270 271 271 271 268 263 261 260 260 259 257 255 255 255 258 257 257 262 260 256 257 260 260 260 261 261 261 264
249 249 253 253 251 249 246 243 237 239 245 249 258 254 256 265 272 272 271 269 266 263 261 261 261 258 257 257 255 256 256 254 257 260 259 256 257 257 258 261 261 263 263 266
248 251 253 256 254 249 246 244 238 236 240 246 253 255 257 263 267 269 266 266 266 263 260 259 260 259 257 257 256 258 256 255 259 258 257 258 257 258 259 261 260 262 264 266
249 251 253 256 252 249 245 242 237 237 240 244 248 255 253 259 262 263 262 262 262 261 258 257 256 257 257 257 257 254 254 256 258 257 257 259 262 259 259 261 259 262 263 266
254 254 256 255 253 253 251 245 240 239 241 244 245 252 253 255 257 255 258 260 259 259 257 255 256 255 256 255 254 253 254 255 256 257 259 261 263 263 260 261 263 265 267 270
254 255 257 255 250 253 251 246 242 242 244 246 244 247 254 254 254 255 255 255 257 257 255 255 254 253 254 254 254 255 255 254 255 259 261 260 261 265 267 263 266 267 268 272
253 254 255 256 255 253 249 246 246 245 244 245 248 249 251 251 250 251 252 252 253 254 253 254 253 251 249 249 251 253 255 256 258 260 262 261 261 264 267 269 271 272 272 276
255 254 255 256 255 254 250 247 247 246 245 246 249 250 249 249 249 250 251 250 249 252 253 254 254 251 248 247 249 251 254 257 259 261 263 264 262 263 268 272 273 275 276 277
256 254 254 255 255 255 251 247 248 248 246 248 250 250 249 248 248 248 249 250 250 251 250 250 252 252 250 249 251 253 254 256 260 262 264 265 265 265 269 271 272 273 276 276
254 253 256 254 252 257 254 249 249 250 249 249 250 252 250 249 248 248 247 248 249 249 248 248 249 250 251 251 251 252 256 258 261 265 265 267 269 270 271 271 274 272 275 277
252 252 253 253 255 260 258 253 252 252 251 250 251 252 253 250 248 247 246 248 249 247 246 247 247 248 250 252 252 253 256 258 262 266 267 268 269 271 271 271 273 274 275 278
250 251 250 252 256 257 255 255 252 251 252 252 251 253 253 252 250 248 247 247 247 246 246 246 247 246 248 250 252 253 255 259 262 264 265 266 267 269 270 272 273 275 276 278
255 253 251 252 253 255 257 256 254 254 253 253 253 252 253 253 250 248 247 246 245 245 245 245 247 247 248 250 252 253 255 258 261 263 264 266 267 269 270 271 273 276 278 277
252 253 256 254 255 256 255 256 257 257 256 254 254 253 252 252 249 246 245 245 244 243 243 244 245 246 247 250 254 256 257 258 260 262 264 266 268 269 270 272 274 277 279 278
252 251 253 254 252 253 255 256 258 257 258 256 254 254 252 250 247 245 244 245 244 242 243 243 244 246 248 250 253 256 257 258 260 262 264 267 269 270 271 272 273 276 279 279
249 252 252 254 254 254 254 256 258 258 258 257 254 253 251 249 247 247 246 245 245 243 242 242 244 246 248 250 252 254 257 258 259 261 264 266 269 271 273 274 274 276 278 280
248 251 251 253 255 256 256 256 258 258 258 258 255 252 251 251 248 247 247 246 245 243 243 244 245 247 248 250 251 254 257 259 261 263 265 266 268 270 272 275 275 276 279 281
Height
5851 5853 5854 5855 5855 5857 5857 5858 5859 5860 5860 5860 5861 5862 5862 5862 5863 5863 5864 5864 5865 5865 5866 5866 5867 5868 5868 5869 5870 5870 5871 5872 5873 5873 5874 5875 5876 5876 5877 5878 5878 5879 5879 5879
5850 5851 5852 5852 5853 5854 5855 5856 5857 5858 5858 5859 5859 5860 5860 5860 5861 5861 5862 5862 5863 5863 5864 5864 5865 5866 5866 5867 5868 5868 5869 5870 5871 5871 5872 5873 5874 5874 5875 5876 5876 5877 5877 5877
5847 5849 5849 5850 5851 5852 5853 5854 5855 5855 5856 5856 5857 5858 5858 5858 5858 5859 5860 5860 5861 5861 5862 5862 5863 5864 5865 5865 5866 5867 5867 5868 5869 5870 5871 5871 5872 5873 5874 5874 5875 5875 5876 5876
5844 5845 5846 5847 5848 5849 5850 5852 5852 5853 5854 5854 5855 5855 5856 5856 5856 5857 5857 5858 5859 5859 5860 5860 5861 5862 5862 5863 5864 5865 5865 5866 5867 5868 5868 5869 5870 5871 5872 5872 5873 5873 5874 5874
5841 5842 5843 5844 5846 5847 5848 5849 5850 5851 5851 5852 5852 5853 5854 5853 5854 5855 5855 5856 5856 5857 5857 5858 5859 5860 5860 5861 5862 5863 5864 5864 5865 5866 5866 5867 5868 5869 5870 5870 5871 5871 5872 5872
5838 5839 5840 5841 5842 5844 5845 5846 5847 5847 5848 5849 5850 5851 5851 5850 5851 5852 5853 5853 5854 5854 5855 5856 5856 5857 5858 5859 5860 5861 5861 5862 5863 5863 5864 5865 5866 5867 5867 5868 5869 5869 5870 5871
5834 5835 5836 5838 5839 5840 5842 5844 5844 5845 5845 5847 5848 5847 5849 5848 5849 5849 5850 5851 5851 5852 5852 5853 5854 5855 5855 5856 5857 5858 5859 5860 5860 5861 5862 5862 5863 5864 5865 5866 5867 5867 5868 5869
5830 5832 5833 5834 5836 5837 5838 5840 5842 5843 5844 5845 5845 5845 5846 5846 5846 5847 5848 5848 5849 5849 5850 5851 5851 5852 5853 5854 5855 5855 5856 5857 5858 5858 5859 5860 5861 5862 5862 5863 5864 5865 5865 5866
5826 5828 5829 5830 5831 5833 5834 5836 5839 5840 5841 5842 5842 5843 5843 5843 5844 5844 5845 5845 5846 5847 5847 5848 5849 5850 5850 5851 5852 5853 5854 5855 5855 5856 5856 5857 5858 5859 5860 5861 5861 5862 5863 5863
5821 5823 5825 5826 5827 5829 5831 5833 5834 5836 5837 5838 5840 5840 5840 5841 5841 5842 5842 5842 5843 5844 5845 5845 5846 5847 5848 5848 5849 5850 5851 5852 5853 5854 5854 5855 5856 5857 5857 5858 5859 5860 5860 5861
5817 5818 5821 5822 5823 5825 5827 5828 5829 5831 5833 5835 5836 5838 5838 5838 5839 5839 5839 5840 5841 5841 5842 5843 5843 5844 5845 5846 5847 5848 5849 5850 5850 5851 5852 5853 5854 5854 5855 5856 5857 5857 5858 5858
5812 5813 5815 5817 5818 5819 5821 5823 5825 5827 5829 5830 5832 5836 5835 5835 5836 5836 5837 5837 5838 5838 5839 5840 5840 5841 5842 5843 5844 5845 5846 5847 5848 5849 5850 5850 5851 5852 5852 5853 5854 5854 5855 5855
5807 5808 5809 5811 5814 5814 5815 5817 5820 5822 5824 5826 5828 5832 5830 5832 5832 5832 5833 5834 5835 5835 5836 5837 5838 5839 5840 5841 5842 5843 5844 5845 5845 5846 5847 5848 5848 5849 5850 5850 5851 5851 5852 5852
5802 5803 5805 5807 5807 5808 5810 5812 5814 5817 5819 5821 5824 5826 5826 5827 5828 5829 5829 5831 5832 5833 5833 5834 5835 5836 5837 5838 5839 5840 5841 5842 5843 5843 5844 5845 5845 5846 5846 5847 5848 5848 5849 5849
5797 5798 5799 5800 5802 5802 5804 5806 5808 5810 5813 5816 5818 5820 5822 5823 5824 5825 5826 5827 5828 5829 5830 5831 5832 5833 5834 5835 5836 5837 5838 5839 5840 5840 5841 5842 5843 5843 5843 5844 5845 5845 5845 5845
5791 5792 5794 5795 5796 5797 5798 5800 5803 5805 5807 5810 5812 5815 5816 5817 5819 5820 5821 5822 5824 5825 5826 5827 5828 5829 5830 5831 5833 5834 5835 5836 5837 5838 5838 5839 5839 5840 5841 5841 5841 5841 5842 5842
5785 5787 5788 5790 5791 5791 5792 5795 5797 5799 5801 5804 5806 5809 5810 5812 5813 5816 5817 5818 5819 5821 5822 5823 5825 5826 5827 5828 5829 5830 5831 5832 5834 5835 5835 5836 5836 5837 5837 5838 5838 5838 5838 5838
5780 5781 5782 5784 5786 5786 5790 5790 5792 5794 5796 5798 5800 5802 5804 5806 5808 5810 5812 5813 5815 5816 5817 5819 5821 5822 5823 5824 5826 5827 5828 5829 5830 5831 5832 5832 5833 5833 5834 5834 5834 5835 5835 5835
5774 5776 5777 5778 5779 5780 5783 5784 5786 5788 5790 5792 5794 5796 5798 5800 5802 5804 5805 5808 5809 5811 5813 5815 5816 5817 5819 5820 5822 5823 5824 5825 5826 5827 5828 5828 5829 5830 5830 5830 5830 5831 5831 5831
5769 5770 5772 5773 5773 5775 5778 5780 5781 5783 5785 5787 5788 5790 5792 5793 5795 5798 5800 5802 5804 5806 5808 5809 5811 5812 5814 5816 5817 5818 5820 5821 5822 5823 5824 5824 5825 5825 5826 5826 5826 5827 5827 5827
5763 5764 5766 5767 5767 5769 5772 5774 5776 5778 5780 5781 5782 5783 5785 5787 5789 5791 5793 5796 5798 5800 5802 5804 5806 5808 5809 5811 5812 5814 5815 5816 5818 5819 5819 5820 5820 5821 5821 5822 5822 5822 5822 5822
5756 5758 5760 5761 5762 5766 5767 5768 5770 5772 5773 5775 5776 5777 5779 5781 5782 5784 5787 5789 5792 5794 5796 5798 5800 5802 5804 5806 5807 5809 5810 5811 5812 5813 5814 5815 5815 5816 5816 5817 5817 5817 5817 5817
5751 5753 5754 5756 5759 5760 5760 5761 5764 5765 5767 5768 5769 5771 5772 5774 5776 5778 5780 5783 5785 5788 5790 5792 5794 5796 5798 5800 5802 5804 5805 5806 5807 5808 5809 5809 5810 5810 5811 5811 5812 5812 5811 5811
5745 5746 5747 5749 5751 5753 5754 5755 5757 5758 5759 5761 5763 5764 5766 5767 5769 5772 5774 5776 5779 5781 5783 5786 5788 5790 5792 5794 5796 5798 5799 5800 5801 5802 5803 5804 5804 5805 5805 5806 5806 5806 5806 5805
5738 5739 5741 5742 5745 5746 5747 5749 5751 5752 5753 5755 5756 5757 5759 5760 5763 5765 5767 5769 5772 5775 5777 5779 5781 5784 5786 5788 5790 5792 5793 5794 5795 5796 5797 5798 5799 5799 5799 5800 5800 5800 5799 5799
5731 5732 5734 5735 5738 5739 5741 5743 5744 5745 5747 5748 5749 5751 5752 5754 5756 5758 5760 5762 5764 5767 5770 5772 5775 5777 5779 5781 5783 5785 5787 5788 5789 5790 5791 5792 5792 5793 5793 5793 5793 5793 5793 5792